Other Public Products
Issued by NWS Grand Forks, ND

Home | Current Version | Previous Version | Graphics & Text | Print | Product List | Glossary On
Versions: 1 2 3 4 5 6 7 8 9 10 11 12 13 14 15 16 17 18 19 20 21 22 23 24 25 26 27 28 29 30 31 32 33 34 35 36 37 38 39 40 41 42 43 44 45 46 47 48 49 50
000
FPUS83 KFGF 221731
OPUFGF
PRAIRIE TO PINES WEATHER ROUNDUP
NATIONAL WEATHER SERVICE EASTERN NORTH DAKOTA/GRAND FORKS ND
1100 AM CST MON JAN 22 2018

 **SATELLITE DATA USED TO AUGMENT SKY COVER AT AUTOMATED STATIONS**
 *****  WEATHER ACROSS EASTERN NORTH DAKOTA  *****

CITY           SKY/WX    TMP DP  RH WIND       PRES   REMARKS
GRAND FORKS    CLOUDY    25  21  85 N14       30.07F WCI  13
GRND FORKS AFB CLOUDY    24  20  82 N13       30.07F WCI  13
GRND FORKS NWS   N/A     25 N/A N/A NE5         N/A  WCI  19
BUXTON           N/A     25  24  99 N14         N/A  WCI  13
DEVILS LAKE    CLOUDY    22  21  96 NE9       30.08S WCI  12
FARGO          CLOUDY    27  24  89 N17       30.00F WCI  14
WAHPETON ARPT  CLOUDY    28  23  80 N14G22    29.95F WCI  17
$$

 *****  WEATHER ACROSS CENTRAL AND WESTERN NORTH DAKOTA  *****

CITY           SKY/WX    TMP DP  RH WIND       PRES   REMARKS
JAMESTOWN      CLOUDY    22  20  92 N14       30.02F WCI   9
BISMARCK       CLOUDY    21  19  92 E3        30.07S FOG
MINOT          SNOW      16  14  92 S7        30.06R VSB 1/4 WCI   6
MINOT AFB      FOG       15  12  89 S3        30.05S VSB 1/4
GARRISON         N/A      9   6  88 CALM      30.04S
WILLISTON      FAIR      13  11  92 SW5       30.02F WCI   5
DICKINSON      FAIR      23  18  81 W10       29.98R WCI  12
HETTINGER      FAIR      29  22  75 NW10      30.00S WCI  20
$$

 *****  OTHER OBSERVATIONS NORTHEAST NORTH DAKOTA  *****

CITY           SKY/WX    TMP DP  RH WIND       PRES   REMARKS
WALHALLA       FAIR      21  21 100 N6        30.13S WCI  14
LANGDON        NOT AVBL
CAVALIER         N/A     23  21  93 N5        30.12F WCI  17
GRAFTON        NOT AVBL
CANDO          CLOUDY    23  23 100 E9        30.11S WCI  13
FORT TOTTEN      N/A     23  22  94 CALM      29.95S
ROLLA          CLOUDY    21  23 100 E8        30.07S WCI  12
RUGBY          NOT AVBL
 ***** THE ABOVE OBSERVATIONS ARE NON NWS ARE NOT QUALITY
        CONTROLLED AND MAY MIS-REPORT RAIN FOR SNOW...
$$

 *****  OTHER OBSERVATIONS SOUTHEAST NORTH DAKOTA *****

CITY           SKY/WX    TMP DP  RH WIND       PRES   REMARKS
COOPERSTOWN    CLOUDY    21  21 100 N15       30.04F WCI   8
VALLEY CITY    NOT AVBL
OAKES            N/A     21  21 100 N18G26    29.98S WCI   6
GWINNER          N/A     25  23  93 N17G23    29.97S WCI  11
SHEYENNE NWR     N/A     25  25 100 N14       29.95S WCI  13
BUFFALO          N/A     24  22  95 SW15        N/A  WCI  11
WYNDMERE       NOT AVBL
 ***** THE ABOVE OBSERVATIONS ARE NON NWS ARE NOT QUALITY
       CONTROLLED AND MAY MIS-REPORT RAIN FOR SNOW...
$$

  *****  WEATHER ACROSS NORTHERN MINNESOTA  *****

CITY           SKY/WX    TMP DP  RH WIND       PRES   REMARKS
FLAG ISLAND    CLOUDY    19  16  86 N12       30.09F WCI   7
WARROAD        CLOUDY    19  18  93 N10       30.09F WCI   8
ROSEAU         CLOUDY    23  19  86 NE9       30.08F WCI  13
HALLOCK        CLOUDY    27  21  80 NE7       30.10F WCI  19
THF RVR FALLS  CLOUDY    25  22  88 NE12      30.05S WCI  14
HALSTAD        NOT AVBL
FOSSTON        CLOUDY    25  21  86 NE13      30.00F WCI  13
BAUDETTE       CLOUDY    21  19  92 NE9       30.06F WCI  11
WASKISH        CLOUDY    23  21  93 NE9       30.03F WCI  13
CROOKSTON      FAIR      27  23  86 NE10      30.06S WCI  17
$$
  *****  WEATHER ACROSS CENTRAL AND WEST MINNESOTA  *****

CITY           SKY/WX    TMP DP  RH WIND       PRES   REMARKS
BEMIDJI        CLOUDY    24  23  95 NE12      29.98F WCI  13
PARK RAPIDS    CLOUDY    26  22  84 NE17G28   29.94S WCI  13
WADENA         CLOUDY    27  23  86 NE13G25   29.91F WCI  16
DETROIT LAKES  CLOUDY    28  27  93 NE13      29.95S WCI  18
MOORHEAD       CLOUDY    27  23  86 N17       30.00S WCI  14
FERGUS FALLS   CLOUDY    27  25  93 NE14G21   29.92F WCI  15
ELBOW LAKE     CLOUDY    27  24  91 E20G26    29.91S FOG     WCI  13
MORRIS MN      CLOUDY    28  27  93 N22       29.86F WCI  15
STAPLES        CLOUDY    27  21  80 NE13G20   29.90F WCI  16
WHEATON        NOT AVBL
$$
  *****  WEATHER ELSEWHERE ACROSS MINNESOTA  *****

CITY           SKY/WX    TMP DP  RH WIND       PRES   REMARKS
DULUTH         CLOUDY    22  21  96 NE18G26   29.93S FOG     WCI   7
INTRNTL FALLS  CLOUDY    19  16  88 NE7       30.06F WCI  10
ELY            CLOUDY    16  16 100 NE7       30.00F WCI   6
CLOQUET        CLOUDY    23  19  86 NE12G24   29.91F WCI  12
BRAINERD       CLOUDY    27  22  81 NE15      29.91F WCI  15
HIBBING        CLOUDY    23  20  88 NE10      29.94F WCI  12
ALEXANDRIA     CLOUDY    26  23  88 NE21G30   29.87F WCI  12
SAINT CLOUD    CLOUDY    29  25  85 N14G26    29.82F WCI  18
MINNEAPOLIS    LGT SNOW  30  29  96 N17G28    29.74F VSB 3/4 WCI  18
$$

  *****  WEATHER ACROSS SOUTH DAKOTA  *****

CITY           SKY/WX    TMP DP  RH WIND       PRES   REMARKS
SIOUX FALLS    CLOUDY    27  24  89 N24G37    29.72S BLWGSNOWWCI  12
BROOKINGS      LGT SNOW  25  23  93 N25G32    29.76F FOG     WCI   9
WATERTOWN      CLOUDY    24  23  96 N26G32    29.83F FOG     WCI   8
HURON          CLOUDY    22  21  96 N22G31    29.90S FOG     WCI   6
SISSETON         N/A     27  24  89 N21       29.92F WCI  13
ABERDEEN       CLOUDY    23  21  92 N21G28    29.96F WCI   8
MITCHELL       CLOUDY    24  22  91 N24       29.86F BLWGSNOWWCI   8
PIERRE         CLOUDY    22  22 100 NW20      29.95F FOG     WCI   7
MOBRIDGE       CLOUDY    23  20  88 N8        30.00R FOG     WCI  14
RAPID CITY     FAIR      36  16  44 N9        29.98S
$$

  *****  SOME WEATHER IN NEARBY STATES *****

CITY           SKY/WX    TMP DP  RH WIND       PRES   REMARKS
GLASGOW MT     FAIR      12   9  87 SE5       29.98R WCI   4
GREAT FALLS MT FAIR      34  19  54 SW20G29   30.01R WCI  23
CHEYENNE WY    FAIR      25   9  50 W23G30    29.98R WCI  10
SCOTTSBLUFF NE FAIR      21  11  65 W10       30.02S WCI  10
OMAHA NE       LGT SNOW  34  32  92 N21G28    29.44R FOG     WCI  22
DES MOINES IA  CLOUDY    47  43  86 S10       29.38F
DAVENPORT IA   FAIR      51  49  92 SE8       29.46F FOG
CHICAGO IL     CLOUDY    51  47  86 S20G25    29.55F
EAU CLAIRE WI  HVY SNOW  32  31  96 N16G29    29.68F VSB 1/4 WCI  21
LA CROSSE WI   LGT RAIN  37  34  89 NE17G24   29.55F FOG
$$

  *****  SOME NATIONAL WEATHER *****

CITY           SKY/WX    TMP DP  RH WIND       PRES   REMARKS
LA GUARDIA NY  CLOUDY    42  37  82 NE13      30.18F HAZE
RALEIGH NC     CLOUDY    61  44  53 CALM      30.17F
ATLANTA GA     CLOUDY    57  54  89 SE8       30.09F FOG
NEW ORLEANS LA CLOUDY    72  69  90 SW10      29.96F
OKLAHOMA CITY  CLOUDY    43  24  47 W31G41    29.87R
ALBUQUERQUE NM FAIR      30  10  43 NW12      30.27R WCI  20
SALT LAKE CITY PTSUNNY   29  18  63 S15       30.30F WCI  18
LOS ANGELES CA FAIR      58  25  28 NE5       30.27R
BOISE ID       CLOUDY    36  33  89 SE8       30.21R
SEATTLE WA     MOCLDY    41  39  93 S14       30.19R
$$

*** WEATHER ACROSS MANITOBA...SASKATCHEWAN AND ONTARIO ***
                ***ONTARIO***

CITY           SKY/WX    TMP DP  RH WIND       PRES   REMARKS
GERALDTON      FLURRIES   1  -6  71 NE13      30.20F WCI -16
THUNDER BAY    CLOUDY    14   9  79 N6        30.10F WCI   5
SIOUX LOOKOUT  FLURRIES   9   3  78 NE5       30.13F WCI   0
TORONTO        LGT RAIN  34  34 100 E14G22    29.96F FOG     WCI  24
BIG TROUT LK   PTSUNNY   -4  -9  77 SE5       30.37F WCI -15
PICKLE LAKE    FLURRIES   0  -8  71 E10       30.22F WCI -17
DRYDEN         FLURRIES  10   9  92 NE8       30.10F WCI  -1
KENORA         FLURRIES  16  10  79 N7        30.11F WCI   6
$$
                *** MANITOBA***

CITY           SKY/WX    TMP DP  RH WIND       PRES   REMARKS
BRANDON        CLOUDY    21  19  93 E8        30.10R FOG     WCI  12
DAUPHIN        CLOUDY    18  16  93 E6        30.12S WCI   9
ISLAND LAKE    SUNNY     -2  -9  71 SE7       30.27F WCI -16
PILOT MOUND      N/A     21  21 100 E3          N/A
THE PAS        CLOUDY    -6 -13  71 E9        30.17F WCI -22
THOMPSON       SUNNY    -17 -22  76 E5        30.33S WCI -29
WINNIPEG       CLOUDY    23  18  80 CALM      30.15R
LYNN LAKE      CLOUDY   -22 -26  83 E7        30.25R WCI -39
CHURCHILL      FLURRIES -13 -18  77 S7        30.54S WCI -29
GILLAM         MOSUNNY  -15 -20  76 E3        30.44S
$$
                ***SASKATCHEWAN***

CITY           SKY/WX    TMP DP  RH WIND       PRES   REMARKS
ESTEVAN        CRYSTALS  12   9  85 E9        30.01S FOG     WCI   0
KINDERSLEY     MOSUNNY   28  21  74 SW10      29.76R WCI  19
LLOYDMINSTER   PTSUNNY   18  18 100 VRB2      29.76R
PRINCE ALBERT  LGT SNOW  10   7  85 E13G20    29.91  FOG     WCI  -5
REGINA         CLOUDY    12   9  85 SE17      29.91F WCI  -5
YORKTON        CLOUDY    21  19  93 SE15G24   29.99S W



USA.gov is the U.S. government's official web portal to all federal, state and local government web resources and services.